Change the Weather History Date:

Wednesday, November 7, 2012

  Actual Average Record
Temperature  
Mean Temperature -3 °F -  
Max Temperature 7 °F 1 °F 35 °F (2003)
Min Temperature -13 °F -13 °F -16 °F (2000)
Degree Days  
Heating Degree Days 68    
Moisture  
Dew Point -6 °F    
Average Humidity 81    
Maximum Humidity 85    
Minimum Humidity 71    
Precipitation  
Precipitation 0.00 in 0.02 in - ()
Sea Level Pressure  
Sea Level Pressure 30.56 in    
Wind  
Wind Speed 4 mph ()    
Max Wind Speed 9 mph    
Max Gust Speed -    
Visibility 3.4 miles    
Events Fog , Snow    
Averages and records for this station are not official NWS values.
T = Trace of Precipitation, MM = Missing Value Source: Averaged Metar Reports

Daily Weather History Graph

Daily Weather History Graph

Search for Another Location

Airport or City:

Trip Planner

Search our weather history database for the weather conditions in past years. The results will help you decide how hot, cold, wet, or windy it might be!

Date:

Astronomy

Nov. 07, 2012 Rise Set
Actual Time 9:40 AM MST 4:39 PM MST
Civil Twilight 8:41 AM MST 5:39 PM MST
Nautical Twilight 7:39 AM MST 6:40 PM MST
Astronomical Twilight 6:41 AM MST 7:38 PM MST
Moon 12:03 AM MST (11/7) 3:13 PM MST (11/7)
Length of Visible Light 8h 58m
Length of Day
6h 59m
Last Quarter, 42% of the Moon is Illuminated
Nov 7
Last Quarter
Nov 13
New
Nov 20
First Quarter
Nov 28
Full
Dec 6
Last Quarter

Hourly Weather History & Observations

Time (MST) Temp. Windchill Dew Point Humidity Pressure Visibility Wind Dir Wind Speed Gust Speed Precip Events Conditions
12:00 AM 5.0 °F -2.1 °F 1.4 °F 85% 30.47 in 30.0 mi NNW 3.5 mph - N/A   Scattered Clouds
1:00 AM 1.4 °F -9.9 °F -2.2 °F 85% 30.48 in 30.0 mi West 5.8 mph - N/A   Scattered Clouds
2:00 AM -5.8 °F - -11.2 °F 77% 30.49 in 30.0 mi Calm Calm - N/A   Partly Cloudy
3:00 AM -4.0 °F -20.2 °F -7.6 °F 85% 30.50 in 30.0 mi WNW 9.2 mph - N/A   Partly Cloudy
4:00 AM -5.8 °F - -11.2 °F 77% 30.52 in 30.0 mi NNW 2.3 mph - N/A   Mostly Cloudy
5:00 AM -8 °F - -12 °F 76% 30.53 in 28 mi East 4.6 mph - -   Scattered Clouds
5:00 AM -7.6 °F -20.6 °F -11.2 °F 84% 30.53 in 30.0 mi East 5.8 mph - N/A   Scattered Clouds
5:22 AM -13.0 °F -25.1 °F -18.4 °F 77% 30.53 in 30.0 mi East 4.6 mph - N/A   Ice Crystals
6:00 AM -5.8 °F -16.7 °F -11.2 °F 77% 30.53 in 30.0 mi East 4.6 mph - N/A   Ice Crystals
7:00 AM -5.8 °F -18.4 °F -11.2 °F 77% 30.54 in 20.0 mi East 5.8 mph - N/A Snow Light Snow
8:00 AM -0.4 °F -12.0 °F -4.0 °F 85% 30.56 in 10.0 mi ENE 5.8 mph - N/A Snow Light Snow
9:00 AM 1.4 °F -6.2 °F -2.2 °F 85% 30.57 in 4.0 mi East 3.5 mph - N/A Snow Light Snow
9:29 AM -0.4 °F - -4.0 °F 85% 30.57 in 3.0 mi ENE 2.3 mph - N/A Snow Light Snow
9:51 AM -0.4 °F -8.3 °F -4.0 °F 85% 30.57 in 2.0 mi ENE 3.5 mph - N/A Snow Light Snow
10:00 AM -0.4 °F -10.4 °F -4.0 °F 85% 30.57 in 2.0 mi ENE 4.6 mph - N/A Snow Light Snow
10:23 AM -0.4 °F -8.3 °F -4.0 °F 85% 30.57 in 1.0 mi ENE 3.5 mph - N/A Snow Light Snow
10:40 AM -0.4 °F -8.3 °F -4.0 °F 85% 30.57 in 0.5 mi NE 3.5 mph - N/A Fog , Snow Light Snow
11:00 AM -1 °F - -5 °F 74% 30.58 in 1 mi ENE 4.6 mph - - Snow Light Snow
11:00 AM -0.4 °F -10.4 °F -5.8 °F 78% 30.57 in 0.8 mi ENE 4.6 mph - N/A Snow Light Snow
11:28 AM -0.4 °F -10.4 °F -4.0 °F 85% 30.57 in 1.0 mi ENE 4.6 mph - N/A   Clear
11:39 AM -0.4 °F -8.3 °F -4.0 °F 85% 30.57 in 0.5 mi East 3.5 mph - N/A Fog Light Freezing Fog
12:00 PM -0.4 °F -10.4 °F -4.0 °F 85% 30.58 in 0.5 mi East 4.6 mph - N/A Fog Light Freezing Fog
12:03 PM -0.4 °F -8.3 °F -4.0 °F 85% 30.57 in 0.2 mi ENE 3.5 mph - N/A Fog Light Freezing Fog
12:40 PM -0.4 °F - -5.8 °F 78% 30.57 in 0.5 mi East 2.3 mph - N/A Fog Light Freezing Fog
12:44 PM -0.4 °F -8.3 °F -4.0 °F 85% 30.57 in 4.0 mi East 3.5 mph - N/A   Clear
1:00 PM -0.4 °F -10.4 °F -5.8 °F 78% 30.57 in 30.0 mi ESE 4.6 mph - N/A   Scattered Clouds
1:14 PM -0.4 °F -12.0 °F -5.8 °F 78% 30.57 in 5.0 mi ESE 5.8 mph - N/A   Mostly Cloudy
2:00 PM 1.4 °F -6.2 °F -4.0 °F 78% 30.57 in 4.0 mi East 3.5 mph - N/A   Mostly Cloudy
3:00 PM 3.2 °F - -0.4 °F 85% 30.57 in 4.0 mi ENE 2.3 mph - N/A   Mostly Cloudy
4:00 PM 1.4 °F - -2.2 °F 85% 30.57 in 15.0 mi ENE 2.3 mph - N/A Snow Light Snow
5:00 PM -0 °F - -5 °F 71% 30.57 in 28 mi Calm Calm - - Snow Light Snow
5:00 PM -0.4 °F - -4.0 °F 85% 30.57 in 30.0 mi Calm Calm - N/A Snow Light Snow
6:00 PM -5.8 °F -14.5 °F -11.2 °F 77% 30.57 in 10.0 mi ENE 3.5 mph - N/A Snow Light Snow
6:16 PM -2.2 °F -10.4 °F -7.6 °F 78% 30.57 in 10.0 mi East 3.5 mph - N/A   Ice Crystals
6:31 PM -7.6 °F -16.5 °F -11.2 °F 84% 30.57 in 4.0 mi East 3.5 mph - N/A   Mostly Cloudy
6:36 PM -7.6 °F -16.5 °F -11.2 °F 84% 30.57 in 1.5 mi ENE 3.5 mph - N/A   Mostly Cloudy
7:00 PM -5.8 °F -16.7 °F -11.2 °F 77% 30.57 in 0.2 mi NE 4.6 mph - N/A Fog Light Freezing Fog
8:00 PM -2.2 °F -10.4 °F -5.8 °F 85% 30.57 in 0.2 mi NE 3.5 mph - N/A Fog Light Freezing Fog
8:46 PM -2.2 °F - -5.8 °F 85% 30.57 in 0.8 mi NNE 2.3 mph - N/A   Mostly Cloudy
9:00 PM -0.4 °F - -5.8 °F 78% 30.56 in 0.8 mi Calm Calm - N/A   Mostly Cloudy
10:00 PM -2.2 °F - -5.8 °F 85% 30.57 in 1.0 mi NE 2.3 mph - N/A   Mostly Cloudy
11:00 PM -3 °F - -7 °F 73% 30.57 in 0 mi ENE 3.5 mph - - Fog Heavy Fog
11:00 PM -2.2 °F -10.4 °F -7.6 °F 78% 30.57 in 0.5 mi ENE 3.5 mph - N/A Fog Light Freezing Fog
11:39 PM -4.0 °F - -9.4 °F 78% 30.57 in 0.2 mi NE 2.3 mph - N/A Fog Light Freezing Fog